GOES 17                 
1 43226U 18022A   19259.73568677  .00000091  00000-0  00000-0 0  9995
2 43226   0.0414  29.6315 0000455 133.1622 320.2542  1.00271080  5693
ATLAS 5 CENTAUR R/B     
1 43227U 18022B   19258.96872795 -.00000153  00000-0  00000-0 0  9999
2 43227   9.0637 278.8062 4913402 291.9600  23.6290  1.88627618 10626